Flag for Canada Weather past 2 weeks in Newmarket, Ontario, Canada

Now
N/A

Clear.


Feels Like: N/A
Forecast: 36 / 58 °F
Wind: No wind

Location: Borden

Current Time: Sep 19, 2014 at 12:50:33 AM

Latest Report: Sep 19, 2014 at 12:00 AM


Visibility: 9 mi

Pressure: 30.25 "Hg

Humidity: N/A

Dew point: N/A

Location of NewmarketLocation

Historic Weather in Newmarket — Graph

°F

Newmarket temperature yesterday

Maximum temperature yesterday: 54 °F (at 3:00 AM)
Minimum temperature yesterday: 37 °F (at 9:00 PM)
Average temperature yesterday: 50 °F

Past Weeks' High & Low Weather Summary

 TemperatureHumidityPressure
High90 °F (Sep 5, 2:00 PM)100% (Sep 3, 11:00 PM)30.34 "Hg (Sep 3, 11:00 PM)
Low37 °F (Sep 18, 9:00 PM)38% (Sep 8, 6:00 PM)29.49 "Hg (Sep 11, 3:01 AM)
Average58 °F85%30.06 "Hg
* Reported Sep 3 11:00 PM — Sep 18 11:00 PM, Newmarket, Weather by CustomWeather, © 2014

Note: Actual official high and low records may vary slightly from our data, if they occured in-between our weather recording intervals... More about our weather records

Advertising

Newmarket weather history for previous 24 hours

 ConditionsComfort  
Time TempWeatherWind HumidityBarometerVisibility
11:00 PM
Sep 18
N/AClear.No windN/A30.24 "Hg9 mi
10:00 PMN/AClear.No windN/A30.23 "Hg9 mi
9:00 PM37 °FClear.3 mph100%30.23 "Hg9 mi
8:00 PMN/ASunny.2 mphN/A30.19 "Hg9 mi
7:00 PM48 °FSunny.3 mph71%30.20 "Hg9 mi
6:00 PMN/ASunny.7 mphN/A30.18 "Hg9 mi
5:00 PMN/ASunny.9 mphN/A30.18 "Hg9 mi
4:00 PMN/ASunny.9 mphN/A30.17 "Hg9 mi
3:00 PM54 °FScattered clouds.9 mph58%30.17 "Hg9 mi
2:00 PM54 °FPassing clouds.9 mph58%30.17 "Hg9 mi
1:00 PM52 °FPartly sunny.8 mph62%30.17 "Hg9 mi
12:00 PM48 °FMostly cloudy.8 mph76%30.17 "Hg9 mi
11:53 AM48 °FPartly sunny.6 mph76%30.15 "Hg9 mi
11:00 AM46 °FLow clouds.9 mph82%30.17 "Hg9 mi
10:00 AM46 °FLow clouds.N/A87%30.16 "HgN/A
9:00 AM46 °FLow clouds.8 mph93%30.13 "Hg9 mi
8:00 AM46 °FLow clouds.6 mph93%30.11 "Hg9 mi
7:00 AM48 °FLow clouds.8 mph94%30.08 "Hg9 mi
6:00 AM50 °FMostly cloudy.8 mph94%30.05 "Hg9 mi
5:58 AM50 °FMostly cloudy.9 mph94%30.04 "Hg9 mi
5:00 AM52 °FLow clouds.9 mph100%30.01 "Hg9 mi
4:00 AM54 °FMostly cloudy.7 mph100%30.00 "Hg9 mi
3:54 AM54 °FMostly cloudy.5 mph100%29.99 "Hg9 mi
3:00 AM54 °FMostly cloudy.3 mph94%29.99 "Hg9 mi
2:00 AM52 °FOvercast.2 mph94%29.98 "Hg9 mi
1:00 AM52 °FMostly cloudy.No wind94%29.97 "Hg9 mi
12:00 AM52 °FPartly cloudy.No wind94%29.97 "Hg9 mi
Weather by CustomWeather, © 2014

See weather overviewHow to use our weather pages